When you browse on this site, cookies collect data to enhance your experience and personalize the content and advertising you see.
Visit our Privacy Policy to learn more. By continuing to use the site, you agree to this use of cookies and data.
  • In Slovakia
  • List of Countries
  • For 7 days
  • Water Temperature
  • Satellite Maps
  • Weather Map
  • Weather Widgets
  • user-avatar
    Login

    Hourly Weather Gozdy

    Today, 20 July, Saturday

    Time Temperature Precipitation Wind Pressure Humidity
    00:00 +17°C° 0.9 mm 3 mps 750 mmHg 92%
    01:00 +17°C° 0.9 mm 3 mps 750 mmHg 93%
    02:00 +17°C° 0.1 mm 2 mps 750 mmHg 94%
    03:00 +16°C° 0.1 mm 2 mps 750 mmHg 94%
    04:00 +16°C° 0.1 mm 2 mps 751 mmHg 95%
    05:00 +17°C° 0 mm 2 mps 751 mmHg 91%
    06:00 +18°C° 0 mm 2 mps 751 mmHg 87%
    07:00 +20°C° 0 mm 2 mps 751 mmHg 83%
    08:00 +21°C° 0 mm 2 mps 751 mmHg 76%
    09:00 +24°C° 0 mm 2 mps 751 mmHg 69%
    10:00 +25°C° 0 mm 2 mps 751 mmHg 61%
    11:00 +26°C° 0 mm 2 mps 751 mmHg 57%
    12:00 +27°C° 0 mm 2 mps 751 mmHg 52%
    13:00 +28°C° 0 mm 2 mps 751 mmHg 47%
    14:00 +28°C° 0 mm 1 mps 751 mmHg 49%
    15:00 +28°C° 0 mm 1 mps 751 mmHg 50%
    16:00 +28°C° 0 mm 1 mps 751 mmHg 52%
    17:00 +27°C° 0 mm 1 mps 751 mmHg 56%
    18:00 +26°C° 0 mm 1 mps 751 mmHg 59%
    19:00 +25°C° 0 mm 1 mps 751 mmHg 63%
    20:00 +24°C° 0 mm 1 mps 751 mmHg 63%
    21:00 +24°C° 0 mm 1 mps 751 mmHg 63%
    22:00 +23°C° 0 mm 2 mps 751 mmHg 62%
    23:00 +21°C° 0 mm 2 mps 751 mmHg 65%

    Tomorrow, 21 July, Sunday

    Time Temperature Precipitation Wind Pressure Humidity
    00:00 +21°C° 0 mm 2 mps 751 mmHg 68%
    01:00 +20°C° 0 mm 2 mps 751 mmHg 70%
    02:00 +20°C° 0 mm 3 mps 751 mmHg 72%
    03:00 +19°C° 0 mm 3 mps 751 mmHg 74%
    04:00 +19°C° 0 mm 3 mps 750 mmHg 76%
    05:00 +20°C° 0.2 mm 3 mps 750 mmHg 77%
    06:00 +21°C° 0.2 mm 3 mps 750 mmHg 77%
    07:00 +21°C° 0.2 mm 4 mps 750 mmHg 77%
    08:00 +23°C° 0.1 mm 4 mps 750 mmHg 74%
    09:00 +25°C° 0.1 mm 3 mps 751 mmHg 72%
    10:00 +26°C° 0.1 mm 3 mps 751 mmHg 69%
    11:00 +27°C° 0.9 mm 4 mps 751 mmHg 66%
    12:00 +28°C° 0.9 mm 4 mps 751 mmHg 63%
    13:00 +29°C° 0.9 mm 5 mps 750 mmHg 61%
    14:00 +28°C° 0.6 mm 5 mps 751 mmHg 62%
    15:00 +28°C° 0.6 mm 5 mps 751 mmHg 63%
    16:00 +27°C° 0.6 mm 5 mps 751 mmHg 64%
    17:00 +26°C° 0.4 mm 4 mps 751 mmHg 69%
    18:00 +23°C° 0.4 mm 4 mps 751 mmHg 75%
    19:00 +22°C° 0.4 mm 3 mps 752 mmHg 81%
    20:00 +21°C° 0 mm 3 mps 752 mmHg 84%
    21:00 +20°C° 0 mm 3 mps 753 mmHg 87%
    22:00 +18°C° 0 mm 3 mps 753 mmHg 90%
    23:00 +18°C° 0 mm 3 mps 753 mmHg 90%

    Day after tomorrow, 22 July, Monday

    Time Temperature Precipitation Wind Pressure Humidity
    00:00 +17°C° 0 mm 4 mps 753 mmHg 90%
    01:00 +17°C° 0 mm 4 mps 754 mmHg 90%
    02:00 +15°C° 0 mm 4 mps 754 mmHg 91%
    03:00 +15°C° 0 mm 4 mps 754 mmHg 93%
    04:00 +14°C° 0 mm 4 mps 754 mmHg 95%
    05:00 +15°C° 0 mm 4 mps 754 mmHg 92%
    06:00 +16°C° 0 mm 5 mps 755 mmHg 89%
    07:00 +17°C° 0 mm 5 mps 755 mmHg 86%
    08:00 +17°C° 0 mm 5 mps 755 mmHg 80%
    09:00 +19°C° 0 mm 5 mps 755 mmHg 75%
    10:00 +20°C° 0 mm 5 mps 756 mmHg 69%
    11:00 +21°C° 0 mm 5 mps 756 mmHg 64%
    12:00 +22°C° 0 mm 6 mps 756 mmHg 60%
    13:00 +23°C° 0 mm 6 mps 756 mmHg 55%
    14:00 +23°C° 0 mm 6 mps 755 mmHg 54%
    15:00 +23°C° 0 mm 6 mps 755 mmHg 54%
    16:00 +23°C° 0 mm 6 mps 755 mmHg 54%
    17:00 +22°C° 0 mm 5 mps 755 mmHg 59%
    18:00 +21°C° 0 mm 4 mps 755 mmHg 65%
    19:00 +20°C° 0 mm 3 mps 755 mmHg 70%
    20:00 +18°C° 0 mm 3 mps 755 mmHg 73%
    21:00 +17°C° 0 mm 3 mps 756 mmHg 76%
    22:00 +16°C° 0 mm 3 mps 756 mmHg 79%
    23:00 +16°C° 0 mm 3 mps 756 mmHg 80%

    23 July, Tuesday

    Time Temperature Precipitation Wind Pressure Humidity
    00:00 +14°C° 0 mm 3 mps 756 mmHg 81%
    01:00 +14°C° 0 mm 3 mps 756 mmHg 82%
    02:00 +13°C° 0 mm 3 mps 756 mmHg 86%
    03:00 +13°C° 0 mm 3 mps 755 mmHg 90%
    04:00 +13°C° 0 mm 3 mps 755 mmHg 94%
    05:00 +14°C° 0 mm 3 mps 755 mmHg 91%
    06:00 +17°C° 0 mm 4 mps 756 mmHg 88%
    07:00 +18°C° 0 mm 4 mps 756 mmHg 85%
    08:00 +20°C° 0 mm 4 mps 756 mmHg 78%
    09:00 +21°C° 0 mm 4 mps 756 mmHg 72%
    10:00 +23°C° 0 mm 4 mps 756 mmHg 66%
    11:00 +23°C° 0.1 mm 4 mps 756 mmHg 62%
    12:00 +25°C° 0.1 mm 4 mps 755 mmHg 59%
    13:00 +26°C° 0.1 mm 5 mps 755 mmHg 56%
    14:00 +26°C° 0.1 mm 5 mps 755 mmHg 56%
    15:00 +26°C° 0.1 mm 4 mps 755 mmHg 57%
    16:00 +26°C° 0.1 mm 4 mps 755 mmHg 57%
    17:00 +25°C° 0.1 mm 4 mps 755 mmHg 64%
    18:00 +22°C° 0.1 mm 3 mps 755 mmHg 71%
    19:00 +21°C° 0.1 mm 3 mps 755 mmHg 79%
    20:00 +20°C° 0 mm 2 mps 755 mmHg 82%
    21:00 +19°C° 0 mm 2 mps 755 mmHg 84%
    22:00 +17°C° 0 mm 2 mps 755 mmHg 87%
    23:00 +18°C° 0 mm 1 mps 755 mmHg 88%

    24 July, Wednesday

    Time Temperature Precipitation Wind Pressure Humidity
    00:00 +18°C° 0 mm 1 mps 755 mmHg 88%
    01:00 +16°C° 0 mm 1 mps 755 mmHg 88%
    02:00 +18°C° 0 mm 1 mps 755 mmHg 88%
    03:00 +16°C° 0 mm 0 mps 755 mmHg 87%
    04:00 +16°C° 0 mm 0 mps 755 mmHg 86%
    05:00 +17°C° 0 mm 0 mps 755 mmHg 83%
    06:00 +18°C° 0 mm 0 mps 755 mmHg 80%
    07:00 +19°C° 0 mm 0 mps 756 mmHg 76%
    08:00 +22°C° 0 mm 1 mps 755 mmHg 72%
    09:00 +23°C° 0 mm 1 mps 755 mmHg 68%
    10:00 +25°C° 0 mm 1 mps 755 mmHg 64%
    11:00 +25°C° 0 mm 1 mps 755 mmHg 62%
    12:00 +26°C° 0 mm 1 mps 755 mmHg 60%
    13:00 +27°C° 0 mm 1 mps 755 mmHg 58%
    14:00 +27°C° 0 mm 1 mps 755 mmHg 58%
    15:00 +27°C° 0 mm 1 mps 755 mmHg 58%
    16:00 +27°C° 0 mm 2 mps 755 mmHg 59%
    17:00 +26°C° 0 mm 1 mps 755 mmHg 63%
    18:00 +25°C° 0 mm 1 mps 755 mmHg 67%
    19:00 +23°C° 0 mm 0 mps 755 mmHg 71%
    20:00 +22°C° 0 mm 0 mps 755 mmHg 75%
    21:00 +20°C° 0 mm 0 mps 755 mmHg 79%
    22:00 +19°C° 0 mm 0 mps 755 mmHg 82%
    23:00 +19°C° 0 mm 0 mps 755 mmHg 84%

    25 July, Thursday

    Time Temperature Precipitation Wind Pressure Humidity
    00:00 +18°C° 0 mm 0 mps 756 mmHg 85%
    01:00 +18°C° 0 mm 0 mps 756 mmHg 87%
    02:00 +18°C° 0 mm 0 mps 756 mmHg 88%
    03:00 +18°C° 0 mm 0 mps 756 mmHg 89%
    04:00 +17°C° 0 mm 0 mps 756 mmHg 90%
    05:00 +19°C° 0 mm 0 mps 756 mmHg 84%
    06:00 +20°C° 0 mm 0 mps 756 mmHg 79%
    07:00 +22°C° 0 mm 0 mps 756 mmHg 73%
    08:00 +23°C° 0 mm 0 mps 756 mmHg 69%
    09:00 +27°C° 0 mm 1 mps 756 mmHg 64%
    10:00 +28°C° 0 mm 1 mps 756 mmHg 60%
    11:00 +29°C° 0 mm 1 mps 756 mmHg 58%
    12:00 +29°C° 0 mm 1 mps 756 mmHg 55%
    13:00 +29°C° 0 mm 1 mps 756 mmHg 53%
    14:00 +29°C° 0 mm 1 mps 756 mmHg 53%
    15:00 +30°C° 0 mm 1 mps 755 mmHg 52%
    16:00 +30°C° 0 mm 1 mps 755 mmHg 52%
    17:00 +29°C° 0 mm 2 mps 755 mmHg 57%
    18:00 +27°C° 0 mm 2 mps 755 mmHg 63%
    19:00 +26°C° 0 mm 2 mps 755 mmHg 69%
    20:00 +25°C° 0 mm 2 mps 756 mmHg 71%
    21:00 +24°C° 0 mm 2 mps 756 mmHg 73%
    22:00 +23°C° 0 mm 2 mps 756 mmHg 75%
    23:00 +21°C° 0 mm 2 mps 756 mmHg 76%
    Show more